Weather History for Fort Myers Airport, FL

Change the Weather History Date:

Monday, November 19, 2012

  Actual Average Record
Temperature  
Mean Temperature 65 °F -  
Max Temperature 75 °F 82 °F 89 °F (1988)
Min Temperature 55 °F 62 °F 39 °F (1951)
Growing Degree Days 15 (Base 50)    
Moisture  
Dew Point 54 °F    
Average Humidity 73    
Maximum Humidity 93    
Minimum Humidity 46    
Precipitation  
Precipitation 0.00 in - - ()
Sea Level Pressure  
Sea Level Pressure 30.10 in    
Wind  
Wind Speed 7 mph (NNE)    
Max Wind Speed 12 mph    
Max Gust Speed -    
Visibility 10 miles    
Events      
Averages and records for this station are not official NWS values.
T = Trace of Precipitation, MM = Missing Value Source: NWS Daily Summary

Daily Weather History Graph

Daily Weather History Graph

Search for Another Location

Airport:

Trip Planner

Search our weather history database for the weather conditions in past years. The results will help you decide how hot, cold, wet, or windy it might be!

Date:

Astronomy

Nov. 19, 2012 Rise Set
Actual Time 6:49 AM EST 5:35 PM EST
Civil Twilight 6:24 AM EST 6:00 PM EST
Nautical Twilight 5:56 AM EST 6:28 PM EST
Astronomical Twilight 5:28 AM EST 6:55 PM EST
Moon 12:03 PM EST (11/19) 11:45 PM EST (11/19)
Length of Visible Light 11h 35m
Length of Day
10h 45m
Waxing Crescent, 40% of the Moon is Illuminated
Nov 19
Waxing Crescent
Nov 20
First Quarter
Nov 28
Full
Dec 6
Last Quarter
Dec 13
New

Hourly Weather History & Observations

Time (EST) Temp. Dew Point Humidity Pressure Visibility Wind Dir Wind Speed Gust Speed Precip Events Conditions
12:53 AM 60.1 °F 55.9 °F 86% 30.14 in 10.0 mi NE 6.9 mph - N/A   Partly Cloudy
1:53 AM 59.0 °F 54.0 °F 83% 30.13 in 10.0 mi NE 4.6 mph - N/A   Partly Cloudy
2:53 AM 57.9 °F 54.0 °F 87% 30.12 in 10.0 mi NNE 5.8 mph - N/A   Clear
3:53 AM 57.0 °F 53.1 °F 87% 30.13 in 10.0 mi NNE 5.8 mph - N/A   Clear
4:53 AM 57.0 °F 53.1 °F 87% 30.13 in 10.0 mi NNE 8.1 mph - N/A   Clear
5:53 AM 55.9 °F 53.1 °F 90% 30.14 in 10.0 mi NNE 5.8 mph - N/A   Clear
6:53 AM 55.0 °F 53.1 °F 93% 30.14 in 9.0 mi North 5.8 mph - N/A   Clear
7:53 AM 57.9 °F 53.1 °F 84% 30.15 in 10.0 mi North 5.8 mph - N/A   Clear
8:53 AM 61.0 °F 54.0 °F 78% 30.15 in 10.0 mi NNE 9.2 mph - N/A   Clear
9:53 AM 64.0 °F 52.0 °F 65% 30.15 in 10.0 mi NNE 11.5 mph - N/A   Clear
10:53 AM 68.0 °F 53.1 °F 59% 30.15 in 10.0 mi NNE 11.5 mph - N/A   Clear
11:53 AM 72.0 °F 52.0 °F 49% 30.12 in 10.0 mi NNE 9.2 mph - N/A   Clear
12:53 PM 73.9 °F 54.0 °F 50% 30.08 in 10.0 mi NNE 8.1 mph - N/A   Clear
1:53 PM 73.9 °F 52.0 °F 46% 30.05 in 10.0 mi North 10.4 mph - N/A   Clear
2:53 PM 75.0 °F 53.1 °F 46% 30.04 in 10.0 mi North 10.4 mph - N/A   Clear
3:53 PM 73.9 °F 54.0 °F 50% 30.04 in 10.0 mi NNE 8.1 mph - N/A   Clear
4:53 PM 70.0 °F 55.9 °F 61% 30.05 in 10.0 mi NNE 9.2 mph - N/A   Clear
5:53 PM 64.9 °F 55.0 °F 70% 30.06 in 10.0 mi NE 10.4 mph - N/A   Clear
6:53 PM 61.0 °F 54.0 °F 78% 30.08 in 10.0 mi NNE 6.9 mph - N/A   Clear
7:33 PM 60.8 °F 53.6 °F 77% 30.09 in 10.0 mi NE 5.8 mph - N/A   Mostly Cloudy
7:53 PM 60.1 °F 54.0 °F 80% 30.09 in 10.0 mi NNE 6.9 mph - N/A   Overcast
8:53 PM 60.1 °F 54.0 °F 80% 30.09 in 10.0 mi NE 10.4 mph - N/A   Overcast
9:53 PM 59.0 °F 53.6 °F 82% 30.10 in 9.0 mi NE 8.1 mph - N/A   Overcast
10:53 PM 59.0 °F 54.0 °F 83% 30.09 in 8.0 mi NE 6.9 mph - N/A   Overcast
11:53 PM 59.0 °F 53.1 °F 81% 30.08 in 9.0 mi Variable 4.6 mph - N/A   Overcast